Time,TemperatureF,DewpointF,PressureIn,WindDirection,WindDirectionDegrees,WindSpeedMPH,WindSpeedGustMPH,Humidity,HourlyPrecipIn,Conditions,Clouds,dailyrainin,SolarRadiationWatts/m^2,SoftwareType,DateUTC
2013-08-21 00:01:00,73.0,49.0,-100.00,North,354,0.0,0.0,42,0.00,,,0.00,0.000000,,2013-08-21 07:01:00,
2013-08-21 00:03:00,70.0,47.0,-100.00,North,350,0.0,0.0,44,0.00,,,0.00,0.000000,,2013-08-21 07:03:00,
2013-08-21 00:42:00,70.0,47.0,-100.00,North,350,0.0,0.0,44,0.00,,,0.00,0.000000,,2013-08-21 07:42:00,
2013-08-21 00:53:00,70.0,47.0,-100.00,North,350,0.0,0.0,44,0.00,,,0.00,0.000000,,2013-08-21 07:53:00,
2013-08-21 01:22:00,70.0,48.0,-100.00,NNW,334,0.0,0.0,46,0.00,,,0.00,0.000000,,2013-08-21 08:22:00,
2013-08-21 01:32:00,70.0,48.0,-100.00,NNW,334,0.0,0.0,46,0.00,,,0.00,0.000000,,2013-08-21 08:32:00,
2013-08-21 01:43:00,70.0,48.0,-100.00,NNW,334,0.0,0.0,46,0.00,,,0.00,0.000000,,2013-08-21 08:43:00,
2013-08-21 01:52:00,70.0,48.0,-100.00,NNW,334,0.0,0.0,46,0.00,,,0.00,0.000000,,2013-08-21 08:52:00,
2013-08-21 02:01:00,70.0,48.0,-100.00,NNW,334,0.0,0.0,46,0.00,,,0.00,0.000000,,2013-08-21 09:01:00,
2013-08-21 02:03:00,72.0,50.0,-100.00,SSW,195,0.0,0.0,46,0.00,,,0.00,0.000000,,2013-08-21 09:03:00,
2013-08-21 02:43:00,72.0,50.0,-100.00,SSW,195,0.0,0.0,46,0.00,,,0.00,0.000000,,2013-08-21 09:43:00,
2013-08-21 02:53:00,72.0,50.0,-100.00,SSW,195,0.0,0.0,46,0.00,,,0.00,0.000000,,2013-08-21 09:53:00,
2013-08-21 03:03:00,68.0,50.0,-100.00,NNW,339,0.0,0.0,53,0.00,,,0.00,0.000000,,2013-08-21 10:03:00,
2013-08-21 03:43:00,68.0,50.0,-100.00,NNW,339,0.0,0.0,53,0.00,,,0.00,0.000000,,2013-08-21 10:43:00,
2013-08-21 03:52:00,68.0,50.0,-100.00,NNW,339,0.0,0.0,53,0.00,,,0.00,0.000000,,2013-08-21 10:52:00,
2013-08-21 04:42:00,66.0,50.0,-100.00,NNW,337,0.0,0.0,56,0.00,,,0.00,0.000000,,2013-08-21 11:42:00,
2013-08-21 04:52:00,66.0,50.0,-100.00,NNW,337,0.0,0.0,56,0.00,,,0.00,0.000000,,2013-08-21 11:52:00,
2013-08-21 05:01:00,66.0,50.0,-100.00,NNW,337,0.0,0.0,56,0.00,,,0.00,0.000000,,2013-08-21 12:01:00,
2013-08-21 05:42:00,68.0,51.0,-100.00,North,350,0.0,0.0,55,0.00,,,0.00,0.000000,,2013-08-21 12:42:00,
2013-08-21 05:52:00,68.0,51.0,-100.00,North,350,0.0,0.0,55,0.00,,,0.00,0.000000,,2013-08-21 12:52:00,
2013-08-21 06:02:00,68.0,51.0,-100.00,North,350,0.0,0.0,55,0.00,,,0.00,0.000000,,2013-08-21 13:02:00,
2013-08-21 06:42:00,67.0,51.0,-100.00,NNW,346,0.0,0.0,57,0.00,,,0.00,0.000000,,2013-08-21 13:42:00,
2013-08-21 06:52:00,67.0,51.0,-100.00,NNW,346,0.0,0.0,57,0.00,,,0.00,0.000000,,2013-08-21 13:52:00,
2013-08-21 07:02:00,67.0,51.0,-100.00,NNW,346,0.0,0.0,57,0.00,,,0.00,0.000000,,2013-08-21 14:02:00,
2013-08-21 07:22:00,69.0,52.0,-100.00,North,349,0.0,0.0,55,0.00,,,-99.99,30.000000,,2013-08-21 14:22:00,
2013-08-21 07:32:00,69.0,52.0,-100.00,North,349,0.0,0.0,55,0.00,,,-99.99,30.000000,,2013-08-21 14:32:00,
2013-08-21 07:42:00,69.0,52.0,-100.00,North,349,0.0,0.0,55,0.00,,,-99.99,30.000000,,2013-08-21 14:42:00,
2013-08-21 07:52:00,69.0,52.0,-100.00,North,349,0.0,0.0,55,0.00,,,-99.99,30.000000,,2013-08-21 14:52:00,
2013-08-21 08:01:00,69.0,52.0,-100.00,North,349,0.0,0.0,55,0.00,,,-99.99,30.000000,,2013-08-21 15:01:00,
2013-08-21 08:03:00,72.0,53.0,-100.00,North,350,0.0,0.0,51,0.00,,,0.00,114.000000,,2013-08-21 15:03:00,
2013-08-21 08:43:00,72.0,53.0,-100.00,North,350,0.0,0.0,51,0.00,,,0.00,114.000000,,2013-08-21 15:43:00,
2013-08-21 08:54:00,72.0,53.0,-100.00,North,350,0.0,0.0,51,0.00,,,0.00,114.000000,,2013-08-21 15:54:00,
2013-08-21 09:03:00,78.0,54.0,-100.00,SW,220,0.0,0.0,43,0.00,,,0.00,253.000000,,2013-08-21 16:03:00,
2013-08-21 09:43:00,78.0,54.0,-100.00,SW,220,0.0,0.0,43,0.00,,,0.00,253.000000,,2013-08-21 16:43:00,
2013-08-21 09:53:00,78.0,54.0,-100.00,SW,220,0.0,0.0,43,0.00,,,0.00,253.000000,,2013-08-21 16:53:00,
2013-08-21 10:23:00,76.0,51.0,-100.00,South,172,0.0,0.0,42,0.00,,,0.00,166.000000,,2013-08-21 17:23:00,
2013-08-21 10:34:00,76.0,51.0,-100.00,South,172,0.0,0.0,42,0.00,,,0.00,166.000000,,2013-08-21 17:34:00,
2013-08-21 10:43:00,76.0,51.0,-100.00,South,172,0.0,0.0,42,0.00,,,0.00,166.000000,,2013-08-21 17:43:00,
2013-08-21 10:53:00,76.0,51.0,-100.00,South,172,0.0,0.0,42,0.00,,,0.00,166.000000,,2013-08-21 17:53:00,
2013-08-21 11:02:00,76.0,51.0,-100.00,South,172,0.0,0.0,42,0.00,,,0.00,166.000000,,2013-08-21 18:02:00,
2013-08-21 11:42:00,77.0,52.0,-100.00,NW,323,0.0,0.0,42,0.00,,,0.00,121.000000,,2013-08-21 18:42:00,
2013-08-21 11:52:00,77.0,52.0,-100.00,NW,323,0.0,0.0,42,0.00,,,0.00,121.000000,,2013-08-21 18:52:00,
2013-08-21 12:01:00,77.0,52.0,-100.00,NW,323,0.0,0.0,42,0.00,,,0.00,121.000000,,2013-08-21 19:01:00,
2013-08-21 12:42:00,77.0,53.0,-100.00,SSE,161,0.0,0.0,44,0.00,,,0.00,229.000000,,2013-08-21 19:42:00,
2013-08-21 12:52:00,77.0,53.0,-100.00,SSE,161,0.0,0.0,44,0.00,,,0.00,229.000000,,2013-08-21 19:52:00,
2013-08-21 13:02:00,77.0,53.0,-100.00,SSE,161,0.0,0.0,44,0.00,,,0.00,229.000000,,2013-08-21 20:02:00,
2013-08-21 13:22:00,80.0,52.0,-100.00,SE,145,0.0,0.0,38,0.00,,,0.00,368.000000,,2013-08-21 20:22:00,
2013-08-21 13:32:00,80.0,52.0,-100.00,SE,145,0.0,0.0,38,0.00,,,0.00,368.000000,,2013-08-21 20:32:00,
2013-08-21 13:42:00,80.0,52.0,-100.00,SE,145,0.0,0.0,38,0.00,,,0.00,368.000000,,2013-08-21 20:42:00,
2013-08-21 13:52:00,80.0,52.0,-100.00,SE,145,0.0,0.0,38,0.00,,,0.00,368.000000,,2013-08-21 20:52:00,
2013-08-21 14:02:00,80.0,52.0,-100.00,SE,145,0.0,0.0,38,0.00,,,0.00,368.000000,,2013-08-21 21:02:00,
2013-08-21 14:03:00,79.0,52.0,-100.00,SE,125,0.0,0.0,39,0.00,,,0.00,336.000000,,2013-08-21 21:03:00,
2013-08-21 14:44:00,79.0,52.0,-100.00,SE,125,0.0,0.0,39,0.00,,,0.00,336.000000,,2013-08-21 21:44:00,
2013-08-21 14:54:00,79.0,52.0,-100.00,SE,125,0.0,0.0,39,0.00,,,0.00,336.000000,,2013-08-21 21:54:00,
2013-08-21 15:03:00,80.0,52.0,-100.00,SE,131,0.0,0.0,38,0.00,,,-99.99,313.000000,,2013-08-21 22:03:00,
2013-08-21 15:24:00,80.0,52.0,-100.00,SE,131,0.0,0.0,38,0.00,,,-99.99,313.000000,,2013-08-21 22:24:00,
2013-08-21 15:34:00,80.0,52.0,-100.00,SE,131,0.0,0.0,38,0.00,,,-99.99,313.000000,,2013-08-21 22:34:00,
2013-08-21 15:44:00,80.0,52.0,-100.00,SE,131,0.0,0.0,38,0.00,,,-99.99,313.000000,,2013-08-21 22:44:00,
2013-08-21 15:53:00,80.0,52.0,-100.00,SE,131,0.0,0.0,38,0.00,,,-99.99,313.000000,,2013-08-21 22:53:00,
2013-08-21 16:43:00,78.0,52.0,-100.00,SSE,149,0.0,0.0,41,0.00,,,0.00,180.000000,,2013-08-21 23:43:00,
2013-08-21 16:53:00,78.0,52.0,-100.00,SSE,149,0.0,0.0,41,0.00,,,0.00,180.000000,,2013-08-21 23:53:00,
2013-08-21 17:02:00,78.0,52.0,-100.00,SSE,149,0.0,0.0,41,0.00,,,0.00,180.000000,,2013-08-22 00:02:00,
2013-08-21 17:22:00,79.0,55.0,-100.00,SSE,157,0.0,0.0,43,0.00,,,0.00,116.000000,,2013-08-22 00:22:00,
2013-08-21 17:32:00,79.0,55.0,-100.00,SSE,157,0.0,0.0,43,0.00,,,0.00,116.000000,,2013-08-22 00:32:00,
2013-08-21 17:42:00,79.0,55.0,-100.00,SSE,157,0.0,0.0,43,0.00,,,0.00,116.000000,,2013-08-22 00:42:00,
2013-08-21 17:52:00,79.0,55.0,-100.00,SSE,157,0.0,0.0,43,0.00,,,0.00,116.000000,,2013-08-22 00:52:00,
2013-08-21 18:02:00,79.0,55.0,-100.00,SSE,157,0.0,0.0,43,0.00,,,0.00,116.000000,,2013-08-22 01:02:00,
2013-08-21 18:03:00,78.0,49.0,-100.00,NNW,329,0.0,0.0,36,0.00,,,0.00,103.000000,,2013-08-22 01:03:00,
2013-08-21 18:42:00,78.0,49.0,-100.00,NNW,329,0.0,0.0,36,0.00,,,0.00,103.000000,,2013-08-22 01:42:00,
2013-08-21 18:52:00,78.0,49.0,-100.00,NNW,329,0.0,0.0,36,0.00,,,0.00,103.000000,,2013-08-22 01:52:00,
2013-08-21 19:52:00,77.0,49.0,-100.00,NE,50,0.0,0.0,37,0.00,,,0.00,33.000000,,2013-08-22 02:52:00,
2013-08-21 20:02:00,77.0,49.0,-100.00,NE,50,0.0,0.0,37,0.00,,,0.00,33.000000,,2013-08-22 03:02:00,
2013-08-21 20:03:00,73.0,50.0,-100.00,North,350,0.0,0.0,44,0.00,,,0.00,0.000000,,2013-08-22 03:03:00,
2013-08-21 20:22:00,73.0,50.0,-100.00,North,350,0.0,0.0,44,0.00,,,0.00,0.000000,,2013-08-22 03:22:00,
2013-08-21 20:35:00,73.0,50.0,-100.00,North,350,0.0,0.0,44,0.00,,,0.00,0.000000,,2013-08-22 03:35:00,
2013-08-21 20:45:00,73.0,50.0,-100.00,North,350,0.0,0.0,44,0.00,,,0.00,0.000000,,2013-08-22 03:45:00,
2013-08-21 20:54:00,73.0,50.0,-100.00,North,350,0.0,0.0,44,0.00,,,0.00,0.000000,,2013-08-22 03:54:00,
2013-08-21 21:03:00,75.0,49.0,-100.00,North,351,0.0,0.0,40,0.00,,,0.00,0.000000,,2013-08-22 04:03:00,
2013-08-21 21:24:00,75.0,49.0,-100.00,North,351,0.0,0.0,40,0.00,,,0.00,0.000000,,2013-08-22 04:24:00,
2013-08-21 21:34:00,75.0,49.0,-100.00,North,351,0.0,0.0,40,0.00,,,0.00,0.000000,,2013-08-22 04:34:00,
2013-08-21 21:44:00,75.0,49.0,-100.00,North,351,0.0,0.0,40,0.00,,,0.00,0.000000,,2013-08-22 04:44:00,
2013-08-21 21:54:00,75.0,49.0,-100.00,North,351,0.0,0.0,40,0.00,,,0.00,0.000000,,2013-08-22 04:54:00,
2013-08-21 22:23:00,73.0,50.0,-100.00,NW,323,0.0,0.0,44,0.00,,,0.00,0.000000,,2013-08-22 05:23:00,
2013-08-21 22:34:00,73.0,50.0,-100.00,NW,323,0.0,0.0,44,0.00,,,0.00,0.000000,,2013-08-22 05:34:00,
2013-08-21 22:43:00,73.0,50.0,-100.00,NW,323,0.0,0.0,44,0.00,,,0.00,0.000000,,2013-08-22 05:43:00,
2013-08-21 22:52:00,73.0,50.0,-100.00,NW,323,0.0,0.0,44,0.00,,,0.00,0.000000,,2013-08-22 05:52:00,
2013-08-21 23:02:00,73.0,50.0,-100.00,NW,323,0.0,0.0,44,0.00,,,0.00,0.000000,,2013-08-22 06:02:00,
2013-08-21 23:42:00,73.0,49.0,-100.00,North,356,0.0,0.0,43,0.00,,,0.00,0.000000,,2013-08-22 06:42:00,
2013-08-21 23:52:00,73.0,49.0,-100.00,North,356,0.0,0.0,43,0.00,,,0.00,0.000000,,2013-08-22 06:52:00,